LIPZDTTA

Guest
Details From LIPZ - Venezia Tessera
To DTTA - Carthage
Flight Number -
Tags Generated
Created
Modified
Stats Distance 528 nm / 977 km
Max Altitude 0 ft / 0 m
Waypoints 4
Social Downloads 1
Likes 0
Share VATSIM

Download

Looking for another format? Having issues loading an existing format? Contact us
Advertisement - Login to hide

Notes

Generated

Route

LIPZ ROXAN TUC07 DTTA

ID Type Via Altitude Latitude Longitude Leg Dist Tot Dist Heading (true) Name
O LIPZ APT - 0 ft / 0 m 45.49516˚ 12.33556˚ - 0 nm - -
ROXAN FIX - 0 ft / 0 m 40.82972˚ 11.21722˚ 284 nm 284 nm 190° / 190° -
TUC07 FIX - 0 ft / 0 m 36.96784˚ 10.24556˚ 236 nm 520 nm 191° / 191° -
O DTTA APT - 0 ft / 0 m 36.85426˚ 10.21769˚ 6 nm 527 nm 191° / 191° -

Altitude Profile

Advertisement - Login to hide

Weather


0- 5 10 15 20 25 30 35+ Temperature / ° C

Clouds and Precipitation
Forecast for 2018-05-21 06:00 UTC. Updated 3 hours ago

Ground ~20,000 ft ~40,000 ft Winds

LIPZ

Details ICAO LIPZ (VCE)
Name Venezia Tessera
Region Italy
Timezone Europe/Rome (UTC+2.0)
Stats Elevation 7 ft / 2 m (AMSL)
Location 45.504791° 12.349691°
Runways 2
Magnetic Variation 3.229° E

METAR

LIPZ 210820Z 06012KT CAVOK 23/11 Q1015 NOSIG

Decode

TAF

TAF LIPZ 210500Z 2106/2212 03012KT 9999 SCT040 BECMG 2109/2111 13008KT BECMG 2116/2118 03010KT BECMG 2209/2211 13008KT TEMPO 2209/2212 SHRA

Decode

Departure Runways

ID Width Length Bearing (true) Bearing (mag) Surface Threshold Offset Overrun Length
04L 148 ft / 45 m 9,112 ft / 2,777 m 42.01° 38.78° Asphalt 312 ft / 95 m 0 ft / 0 m
04R 148 ft / 45 m 10,834 ft / 3,302 m 41.99° 38.76° Asphalt 0 ft / 0 m 0 ft / 0 m
22L 148 ft / 45 m 10,834 ft / 3,302 m 222.01° 218.78° Asphalt 0 ft / 0 m 0 ft / 0 m
22R 148 ft / 45 m 9,112 ft / 2,777 m 222.02° 218.79° Asphalt 0 ft / 0 m 0 ft / 0 m

DTTA

Details ICAO DTTA (TUN)
Name CARTHAGE
Region Tunisia
Timezone Africa/Tunis (UTC+1.0)
Stats Elevation 22 ft / 7 m (AMSL)
Location 36.851267° 10.230027°
Runways 2
Magnetic Variation 2.445° E

METAR

DTTA 210830Z 36004KT 8000 -RA SCT020 SCT033 18/16 Q1011 NOSIG

Decode

TAF

TAF DTTA 210529Z 2106/2206 22008KT 8000 RA SCT026 BKN036= TAF DTMB 210529Z 2106/2206 36006KT 8000 FEW020

Decode

Destination Runways

ID Width Length Bearing (true) Bearing (mag) Surface Threshold Offset Overrun Length
01 148 ft / 45 m 10,502 ft / 3,201 m 12.29° 9.85° Asphalt 0 ft / 0 m 197 ft / 60 m
11 148 ft / 45 m 9,345 ft / 2,848 m 112.55° 110.11° Asphalt 0 ft / 0 m 643 ft / 196 m
19 148 ft / 45 m 10,502 ft / 3,201 m 192.29° 189.85° Asphalt 0 ft / 0 m 197 ft / 60 m
29 148 ft / 45 m 9,345 ft / 2,848 m 292.57° 290.13° Asphalt 657 ft / 200 m 197 ft / 60 m

Approach Navaids

Runway Type Ident Frequency Range Bearing (true) Bearing (mag) Slope Elevation
01 Glidescope TBL 111.10 MHz 10 nm / 19 km 10.00° 7.56° 3.00° 22 ft / 7 m (AMSL)
01 DME TBL 111.10 MHz 18 nm / 33 km - - - 22 ft / 7 m (AMSL)
19 Localiser TSI 110.30 MHz 18 nm / 33 km 192.29° 189.84° - 13 ft / 4 m (AMSL)
19 Glidescope TSI 110.30 MHz 10 nm / 19 km 192.29° 189.84° 3.00° 22 ft / 7 m (AMSL)
29 Localiser TKE 108.50 MHz 18 nm / 33 km 292.54° 290.10° - 22 ft / 7 m (AMSL)
29 Glidescope TKE 108.50 MHz 10 nm / 19 km 292.56° 290.11° 3.00° 22 ft / 7 m (AMSL)
29 DME TKE 108.50 MHz 18 nm / 33 km - - - 22 ft / 7 m (AMSL)

Popular Alternatives